G08806 KBDL-KBDL

Flight info

Callsign G08806
Flight time 1h 19m
Altitude 3500
Route PUT KBOS CEF
Aircraft H47/M-G/L

Departure

Time 2026-05-04 10:16
Airport Bradley International Airport (KBDL)

Arrival

Time 2026-05-04 11:35
Airport Bradley International Airport (KBDL)
Time Latitude Longitude Altitude Speed Heading
2026-05-04 10:13 41.94402 -72.67605 198 ft 0 kts 89°
2026-05-04 10:13 41.94405 -72.67596 202 ft 5 kts 26°
2026-05-04 10:13 41.94423 -72.67622 209 ft 3 kts 278°
2026-05-04 10:14 41.94424 -72.67654 200 ft 5 kts 271°
2026-05-04 10:14 41.94425 -72.67699 198 ft 0 kts 271°
2026-05-04 10:16 41.93729 -72.66834 1049 ft 145 kts 99°
2026-05-04 10:16 41.93673 -72.65366 1446 ft 167 kts 91°
2026-05-04 10:16 41.93637 -72.63822 1516 ft 169 kts 94°
2026-05-04 10:16 41.93661 -72.62251 1520 ft 164 kts 90°
2026-05-04 10:17 41.93673 -72.60732 1527 ft 162 kts 93°
2026-05-04 10:17 41.93678 -72.59239 1520 ft 163 kts 90°
2026-05-04 10:19 41.93916 -72.48629 1525 ft 162 kts 88°
2026-05-04 10:19 41.94013 -72.47150 1525 ft 161 kts 86°
2026-05-04 10:19 41.94122 -72.45656 1519 ft 160 kts 86°
2026-05-04 10:19 41.94221 -72.44170 1514 ft 161 kts 88°
2026-05-04 10:20 41.94307 -72.42666 1516 ft 160 kts 88°
2026-05-04 10:20 41.94390 -72.41181 1522 ft 159 kts 87°
2026-05-04 10:20 41.94470 -72.39702 1517 ft 158 kts 88°
2026-05-04 10:20 41.94551 -72.38224 1629 ft 162 kts 88°
2026-05-04 10:21 41.94616 -72.36671 1866 ft 170 kts 89°
2026-05-04 10:21 41.94656 -72.35106 2175 ft 169 kts 90°
2026-05-04 10:21 41.94667 -72.33508 2431 ft 173 kts 91°
2026-05-04 10:21 41.94647 -72.31877 2606 ft 176 kts 93°
2026-05-04 10:22 41.94516 -72.28606 3046 ft 175 kts 95°
2026-05-04 10:22 41.94509 -72.26978 3257 ft 174 kts 90°
2026-05-04 10:22 41.94570 -72.25350 3427 ft 175 kts 87°
2026-05-04 10:23 41.94633 -72.23734 3538 ft 172 kts 87°
2026-05-04 10:23 41.94695 -72.22116 3529 ft 176 kts 87°
2026-05-04 10:25 41.94938 -72.10243 3531 ft 182 kts 87°
2026-05-04 10:25 41.94986 -72.08542 3531 ft 182 kts 88°
2026-05-04 10:25 41.94998 -72.06842 3535 ft 182 kts 91°
2026-05-04 10:25 41.94921 -72.05166 3529 ft 183 kts 96°
2026-05-04 10:26 41.94758 -72.03468 3527 ft 184 kts 96°
2026-05-04 10:26 41.94803 -72.01756 3536 ft 182 kts 86°
2026-05-04 10:26 41.94881 -72.00063 3535 ft 181 kts 86°
2026-05-04 10:26 41.94982 -71.98381 3528 ft 181 kts 84°
2026-05-04 10:27 41.95062 -71.96692 3528 ft 182 kts 86°
2026-05-04 10:27 41.95141 -71.95000 3530 ft 182 kts 86°
2026-05-04 10:27 41.95216 -71.93301 3529 ft 182 kts 87°
2026-05-04 10:27 41.95257 -71.91607 3525 ft 181 kts 88°
2026-05-04 10:28 41.95305 -71.89939 3527 ft 181 kts 87°
2026-05-04 10:28 41.95328 -71.88243 3533 ft 182 kts 90°
2026-05-04 10:28 41.95347 -71.86533 3524 ft 184 kts 84°
2026-05-04 10:28 41.95669 -71.84891 3529 ft 181 kts 66°
2026-05-04 10:29 41.96236 -71.83405 3524 ft 177 kts 59°
2026-05-04 10:29 41.96819 -71.81957 3525 ft 176 kts 59°
2026-05-04 10:29 41.97350 -71.80467 3524 ft 177 kts 63°
2026-05-04 10:29 41.97901 -71.78993 3529 ft 176 kts 58°
2026-05-04 10:30 41.98481 -71.77553 3528 ft 176 kts 58°
2026-05-04 10:30 41.99039 -71.76116 3535 ft 175 kts 59°
2026-05-04 10:30 41.99639 -71.74700 3526 ft 174 kts 56°
2026-05-04 10:30 42.00253 -71.73293 3527 ft 174 kts 56°
2026-05-04 10:31 42.00876 -71.71896 3541 ft 174 kts 56°
2026-05-04 10:31 42.01489 -71.70491 3527 ft 174 kts 56°
2026-05-04 10:32 42.05420 -71.62393 3526 ft 172 kts 56°
2026-05-04 10:33 42.05990 -71.60977 3529 ft 173 kts 58°
2026-05-04 10:33 42.06610 -71.59590 3528 ft 173 kts 53°
2026-05-04 10:33 42.07278 -71.58259 3529 ft 171 kts 52°
2026-05-04 10:33 42.07928 -71.56902 3525 ft 173 kts 54°
2026-05-04 10:34 42.08586 -71.55555 3527 ft 171 kts 52°
2026-05-04 10:34 42.09252 -71.54229 3526 ft 171 kts 52°
2026-05-04 10:34 42.09891 -71.52903 3526 ft 171 kts 54°
2026-05-04 10:34 42.10516 -71.51535 3525 ft 171 kts 55°
2026-05-04 10:35 42.11118 -71.50152 3525 ft 171 kts 57°
2026-05-04 10:35 42.11717 -71.48762 3526 ft 171 kts 56°
2026-05-04 10:35 42.12339 -71.47396 3524 ft 171 kts 55°
2026-05-04 10:35 42.12981 -71.46052 3524 ft 171 kts 53°
2026-05-04 10:36 42.13665 -71.44758 3515 ft 169 kts 50°
2026-05-04 10:36 42.14333 -71.43450 3514 ft 170 kts 52°
2026-05-04 10:36 42.14958 -71.42098 3516 ft 170 kts 56°
2026-05-04 10:36 42.15584 -71.40740 3514 ft 170 kts 54°
2026-05-04 10:37 42.16206 -71.39413 3513 ft 169 kts 54°
2026-05-04 10:37 42.16807 -71.38039 3512 ft 171 kts 57°
2026-05-04 10:37 42.17381 -71.36637 3513 ft 171 kts 58°
2026-05-04 10:37 42.17977 -71.35252 3512 ft 170 kts 56°
2026-05-04 10:39 42.21963 -71.27478 3512 ft 168 kts 50°
2026-05-04 10:39 42.22677 -71.26231 3512 ft 167 kts 48°
2026-05-04 10:39 42.23399 -71.25005 3510 ft 167 kts 48°
2026-05-04 10:40 42.24105 -71.23765 3515 ft 166 kts 50°
2026-05-04 10:40 42.24776 -71.22500 3499 ft 163 kts 51°
2026-05-04 10:40 42.25426 -71.21313 3089 ft 153 kts 47°
2026-05-04 10:40 42.26133 -71.20331 2759 ft 143 kts 39°
2026-05-04 10:41 42.26852 -71.19434 2491 ft 139 kts 39°
2026-05-04 10:41 42.27540 -71.18550 2362 ft 133 kts 39°
2026-05-04 10:41 42.28205 -71.17711 2433 ft 130 kts 38°
2026-05-04 10:41 42.28873 -71.16893 2518 ft 129 kts 38°
2026-05-04 10:42 42.29547 -71.16101 2521 ft 126 kts 36°
2026-05-04 10:42 42.30212 -71.15353 2362 ft 124 kts 34°
2026-05-04 10:42 42.30896 -71.14654 2178 ft 123 kts 32°
2026-05-04 10:42 42.31575 -71.13966 2108 ft 121 kts 32°
2026-05-04 10:43 42.32245 -71.13276 1984 ft 120 kts 33°
2026-05-04 10:44 42.36700 -71.08749 1342 ft 97 kts 27°
2026-05-04 10:45 42.37268 -71.08305 1113 ft 93 kts 27°
2026-05-04 10:45 42.37793 -71.07864 965 ft 86 kts 49°
2026-05-04 10:45 42.38188 -71.07335 977 ft 79 kts 50°
2026-05-04 10:45 42.38521 -71.06773 923 ft 74 kts 50°
2026-05-04 10:46 42.38801 -71.06218 882 ft 68 kts 78°
2026-05-04 10:46 42.38826 -71.05606 851 ft 65 kts 96°
2026-05-04 10:46 42.38807 -71.04945 817 ft 74 kts 98°
2026-05-04 10:46 42.38717 -71.04281 715 ft 71 kts 108°
2026-05-04 10:47 42.38467 -71.03697 499 ft 73 kts 131°
2026-05-04 10:47 42.38225 -71.03184 393 ft 60 kts 128°
2026-05-04 10:47 42.37979 -71.02781 246 ft 50 kts 124°
2026-05-04 10:47 42.37775 -71.02476 170 ft 38 kts 118°
2026-05-04 10:49 42.37429 -71.02120 19 ft 5 kts 137°
2026-05-04 10:49 42.37405 -71.02089 19 ft 4 kts 135°
2026-05-04 10:50 42.37394 -71.02075 20 ft 0 kts 136°
2026-05-04 10:56 42.37397 -71.01986 19 ft 4 kts 114°
2026-05-04 10:56 42.37382 -71.01944 19 ft 6 kts 124°
2026-05-04 10:56 42.37354 -71.01902 19 ft 6 kts 136°
2026-05-04 10:57 42.37334 -71.01877 19 ft 0 kts 131°
2026-05-04 10:57 42.37349 -71.01885 21 ft 0 kts 306°
2026-05-04 10:58 42.37351 -71.01891 21 ft 2 kts 290°
2026-05-04 10:58 42.37365 -71.01918 20 ft 0 kts 317°
2026-05-04 11:00 42.37386 -71.01938 46 ft 18 kts 316°
2026-05-04 11:01 42.36828 -71.10154 2490 ft 143 kts 271°
2026-05-04 11:02 42.36748 -71.11494 2493 ft 143 kts 276°
2026-05-04 11:02 42.36723 -71.12838 2491 ft 143 kts 277°
2026-05-04 11:05 42.36753 -71.31551 2509 ft 142 kts 276°
2026-05-04 11:06 42.36702 -71.32883 2499 ft 141 kts 275°
2026-05-04 11:06 42.36638 -71.34206 2501 ft 142 kts 275°
2026-05-04 11:06 42.36605 -71.35533 2499 ft 141 kts 278°
2026-05-04 11:06 42.36640 -71.36856 2505 ft 140 kts 281°
2026-05-04 11:08 42.36973 -71.45987 2505 ft 139 kts 278°
2026-05-04 11:10 42.37467 -71.55009 2491 ft 136 kts 287°
2026-05-04 11:12 42.37983 -71.63890 2488 ft 137 kts 274°
2026-05-04 11:12 42.37941 -71.65148 2487 ft 135 kts 277°
2026-05-04 11:12 42.37977 -71.66415 2485 ft 136 kts 281°
2026-05-04 11:12 42.37964 -71.67699 2487 ft 137 kts 277°
2026-05-04 11:13 42.37956 -71.68976 2487 ft 135 kts 278°
2026-05-04 11:13 42.37983 -71.70242 2480 ft 136 kts 279°
2026-05-04 11:13 42.37883 -71.71535 2489 ft 138 kts 271°
2026-05-04 11:13 42.37792 -71.72825 2488 ft 137 kts 274°
2026-05-04 11:14 42.37742 -71.74085 2491 ft 135 kts 276°
2026-05-04 11:14 42.37721 -71.75348 2488 ft 135 kts 278°
2026-05-04 11:14 42.37725 -71.76615 2487 ft 134 kts 278°
2026-05-04 11:16 42.34442 -71.84614 2485 ft 143 kts 247°
2026-05-04 11:16 42.33841 -71.85698 2483 ft 145 kts 239°
2026-05-04 11:16 42.33168 -71.86708 2483 ft 144 kts 237°
2026-05-04 11:17 42.32525 -71.87729 2485 ft 142 kts 241°
2026-05-04 11:17 42.31902 -71.88766 2483 ft 143 kts 240°
2026-05-04 11:19 42.27690 -71.96202 2487 ft 143 kts 239°
2026-05-04 11:19 42.27051 -71.97222 2486 ft 141 kts 241°
2026-05-04 11:19 42.26455 -71.98273 2483 ft 141 kts 244°
2026-05-04 11:19 42.25886 -71.99358 2478 ft 142 kts 244°
2026-05-04 11:20 42.25334 -72.00461 2487 ft 141 kts 246°
2026-05-04 11:20 42.24834 -72.01589 2474 ft 141 kts 250°
2026-05-04 11:20 42.24323 -72.02736 2487 ft 143 kts 248°
2026-05-04 11:20 42.23815 -72.03875 2485 ft 145 kts 247°
2026-05-04 11:22 42.20307 -72.12043 2492 ft 146 kts 244°
2026-05-04 11:22 42.19763 -72.13195 2494 ft 144 kts 248°
2026-05-04 11:23 42.19284 -72.14345 2491 ft 142 kts 250°
2026-05-04 11:23 42.18749 -72.15480 2489 ft 145 kts 244°
2026-05-04 11:24 42.15505 -72.22368 2491 ft 144 kts 250°
2026-05-04 11:25 42.15055 -72.23569 2490 ft 144 kts 252°
2026-05-04 11:25 42.14607 -72.24771 2494 ft 144 kts 251°
2026-05-04 11:25 42.14121 -72.25932 2495 ft 143 kts 249°
2026-05-04 11:26 42.13052 -72.28229 2489 ft 145 kts 244°
2026-05-04 11:27 42.09148 -72.36050 2487 ft 144 kts 245°
2026-05-04 11:28 42.08606 -72.37188 2489 ft 146 kts 247°
2026-05-04 11:28 42.08075 -72.38346 2488 ft 145 kts 247°
2026-05-04 11:28 42.07561 -72.39501 2490 ft 143 kts 248°
2026-05-04 11:28 42.07068 -72.40657 2491 ft 142 kts 248°
2026-05-04 11:29 42.06576 -72.41811 2488 ft 142 kts 249°
2026-05-04 11:29 42.06089 -72.42955 2488 ft 140 kts 249°
2026-05-04 11:29 42.05618 -72.44081 2487 ft 141 kts 249°
2026-05-04 11:29 42.05155 -72.45241 2489 ft 140 kts 250°
2026-05-04 11:31 42.01692 -72.53268 2522 ft 143 kts 242°
2026-05-04 11:33 41.98537 -72.60832 2108 ft 127 kts 250°
2026-05-04 11:33 41.98090 -72.61819 1618 ft 123 kts 245°
2026-05-04 11:33 41.97611 -72.62800 1251 ft 125 kts 241°
2026-05-04 11:34 41.97126 -72.63755 982 ft 125 kts 238°
2026-05-04 11:34 41.96633 -72.64692 854 ft 123 kts 236°
2026-05-04 11:34 41.96098 -72.65610 601 ft 122 kts 230°
2026-05-04 11:34 41.95557 -72.66382 485 ft 104 kts 225°
2026-05-04 11:35 41.95097 -72.66966 384 ft 77 kts 225°
2026-05-04 11:35 41.94767 -72.67408 311 ft 56 kts 226°
2026-05-04 11:35 41.94569 -72.67699 253 ft 27 kts 169°
2026-05-04 11:35 41.94489 -72.67809 220 ft 11 kts 130°
2026-05-04 11:36 41.94437 -72.67819 213 ft 5 kts 103°
2026-05-04 11:36 41.94428 -72.67777 202 ft 7 kts 97°
2026-05-04 11:36 41.94423 -72.67710 204 ft 8 kts 107°
2026-05-04 11:36 41.94411 -72.67686 199 ft 2 kts 131°
2026-05-04 11:37 41.94402 -72.67640 201 ft 7 kts 89°
2026-05-04 11:37 41.94402 -72.67608 198 ft 0 kts 91°